Weather History for KMSS - November, 2011

Change the Weather History Date:

Friday, November 18, 2011

  Actual Average Record
Temperature  
Mean Temperature 34 °F 35 °F  
Max Temperature 42 °F 43 °F 68 °F (1958)
Min Temperature 25 °F 27 °F 13 °F (1983)
Degree Days  
Heating Degree Days 31 30  
Month to date heating degree days 388 490  
Since 1 July heating degree days 993 1371  
Cooling Degree Days 0 0  
Month to date cooling degree days 0  
Year to date cooling degree days 363  
Moisture  
Dew Point 24 °F    
Average Humidity 67    
Maximum Humidity 85    
Minimum Humidity 48    
Precipitation  
Precipitation 0.00 in 0.11 in 1.54 in (1963)
Month to date precipitation 0.39 1.88  
Year to date precipitation 27.76 31.38  
Sea Level Pressure  
Sea Level Pressure 30.18 in    
Wind  
Wind Speed 10 mph (SW)    
Max Wind Speed 18 mph    
Max Gust Speed 24 mph    
Visibility 10 miles    
Events      
T = Trace of Precipitation, MM = Missing Value Source: NWS Daily Summary

Daily Weather History Graph

Daily Weather History Graph

Search for Another Location

Airport or City:

Trip Planner

Search our weather history database for the weather conditions in past years. The results will help you decide how hot, cold, wet, or windy it might be!

Date:

Astronomy

Nov. 18, 2011 Rise Set
Actual Time 7:00 AM EST 4:28 PM EST
Civil Twilight 6:28 AM EST 5:00 PM EST
Nautical Twilight 5:52 AM EST 5:35 PM EST
Astronomical Twilight 5:18 AM EST 6:10 PM EST
Moon No Moon Rise 12:30 PM EST (11/18)
Length of Visible Light 10h 31m
Length of Day
9h 27m
Waning Gibbous, 49% of the Moon is Illuminated
Nov 18
Waning Gibbous
Nov 25
New
Dec 2
First Quarter
Dec 10
Full
Dec 17
Last Quarter

Hourly Weather History & Observations

Time (EST) Temp. Windchill Dew Point Humidity Pressure Visibility Wind Dir Wind Speed Gust Speed Precip Events Conditions
12:53 AM 28.9 °F 22.8 °F 24.1 °F 82% 29.96 in 10.0 mi SW 5.8 mph - N/A   Clear
1:53 AM 30.9 °F 24.3 °F 24.1 °F 76% 29.99 in 10.0 mi WSW 6.9 mph 16.1 mph N/A   Partly Cloudy
2:53 AM 32.0 °F 23.6 °F 25.0 °F 75% 30.04 in 10.0 mi West 10.4 mph 18.4 mph N/A   Overcast
3:53 AM 32.0 °F 25.6 °F 24.8 °F 75% 30.06 in 10.0 mi West 6.9 mph - N/A   Overcast
4:53 AM 30.0 °F 23.2 °F 24.1 °F 79% 30.12 in 10.0 mi SW 6.9 mph - N/A   Mostly Cloudy
5:53 AM 26.1 °F 18.4 °F 21.9 °F 84% 30.14 in 10.0 mi SSW 6.9 mph - N/A   Partly Cloudy
6:53 AM 26.6 °F 18.2 °F 23.0 °F 86% 30.15 in 10.0 mi SW 8.1 mph - N/A   Clear
7:53 AM 28.9 °F 21.9 °F 25.0 °F 85% 30.22 in 10.0 mi SW 6.9 mph - N/A   Mostly Cloudy
8:53 AM 32.0 °F 25.6 °F 26.1 °F 79% 30.23 in 10.0 mi WSW 6.9 mph - N/A   Clear
9:53 AM 34.0 °F 26.0 °F 26.1 °F 73% 30.24 in 10.0 mi SW 10.4 mph - N/A   Clear
10:53 AM 35.6 °F 27.5 °F 28.4 °F 75% 30.23 in 10.0 mi WSW 11.5 mph 19.6 mph N/A   Scattered Clouds
11:10 AM 37.4 °F 30.8 °F 28.4 °F 70% 30.23 in 10.0 mi SW 9.2 mph 17.3 mph N/A   Mostly Cloudy
11:45 AM 39.2 °F 32.5 °F 26.6 °F 61% 30.23 in 10.0 mi SSW 10.4 mph 19.6 mph N/A   Mostly Cloudy
11:53 AM 37.9 °F 30.5 °F 26.1 °F 62% 30.25 in 10.0 mi SW 11.5 mph 19.6 mph N/A   Mostly Cloudy
12:05 PM 37.4 °F 29.3 °F 24.8 °F 60% 30.23 in 10.0 mi WSW 12.7 mph - N/A   Mostly Cloudy
12:53 PM 39.9 °F 32.1 °F 23.0 °F 51% 30.23 in 10.0 mi WSW 13.8 mph 24.2 mph N/A   Partly Cloudy
1:53 PM 39.9 °F 33.9 °F 26.1 °F 58% 30.22 in 10.0 mi SW 9.2 mph 18.4 mph N/A   Mostly Cloudy
2:53 PM 39.9 °F 33.4 °F 25.0 °F 55% 30.22 in 10.0 mi SW 10.4 mph 18.4 mph N/A   Mostly Cloudy
3:53 PM 39.2 °F 32.5 °F 23.0 °F 52% 30.22 in 10.0 mi SW 10.4 mph - N/A   Overcast
4:53 PM 37.9 °F 30.9 °F 21.9 °F 53% 30.24 in 10.0 mi SW 10.4 mph - N/A   Mostly Cloudy
5:53 PM 39.0 °F 31.0 °F 24.1 °F 55% 30.23 in 10.0 mi SSW 13.8 mph 20.7 mph N/A   Scattered Clouds
6:53 PM 37.4 °F 29.3 °F 23.0 °F 56% 30.22 in 10.0 mi SSW 12.7 mph - N/A   Partly Cloudy
7:53 PM 36.0 °F 28.5 °F 19.9 °F 52% 30.23 in 10.0 mi SSW 10.4 mph 18.4 mph N/A   Clear
8:53 PM 37.0 °F 28.9 °F 21.0 °F 52% 30.21 in 10.0 mi SSW 12.7 mph - N/A   Scattered Clouds
9:53 PM 39.0 °F 32.3 °F 21.9 °F 50% 30.20 in 10.0 mi SSW 10.4 mph 18.4 mph N/A   Overcast
10:53 PM 39.2 °F 32.5 °F 21.2 °F 49% 30.16 in 10.0 mi South 10.4 mph - N/A   Overcast
11:53 PM 39.0 °F 34.0 °F 21.0 °F 49% 30.17 in 10.0 mi South 6.9 mph - N/A   Overcast